Flag for Canada Weather past 2 weeks in Edmundston, New Brunswick, Canada

Now
65 °F

Mild.


Feels Like: 65 °F
Forecast: 54 / 71 °F
Wind: No wind

Location: St Leonard

Current Time: Jul 23, 2014 at 11:34:03 PM

Latest Report: Jul 23, 2014 at 11:00 PM


Visibility: N/A

Pressure: 29.74 "Hg

Humidity: 87%

Dew point: 61 °F

Location of EdmundstonLocation

Historic Weather in Edmundston — Graph

°F

Edmundston temperature yesterday

Maximum temperature yesterday: 83 °F (at 8:00 PM)
Minimum temperature yesterday: 56 °F (at 6:00 AM)
Average temperature yesterday: 69 °F

Past Weeks' High & Low Weather Summary

 TemperatureHumidityPressure
High83 °F (Jul 22, 8:00 PM)100% (Jul 13, 6:00 AM)30.28 "Hg (Jul 13, 6:00 AM)
Low47 °F (Jul 11, 5:00 AM)32% (Jul 14, 5:00 PM)29.54 "Hg (Jul 9, 5:00 AM)
Average68 °F72%29.96 "Hg
* Reported Jul 8 9:00 PM — Jul 23 9:00 PM, Edmundston, Weather by CustomWeather, © 2014

Note: Actual official high and low records may vary slightly from our data, if they occured in-between our weather recording intervals... More about our weather records

Advertising

Edmundston weather history for previous 24 hours

 ConditionsComfort  
Time TempWeatherWind HumidityBarometerVisibility
9:00 PM
Jul 23
66 °FMild.No wind89%29.72 "HgN/A
8:00 PM68 °FMild.1 mph84%29.69 "HgN/A
7:00 PM71 °FMild.1 mph91%29.67 "HgN/A
6:00 PM72 °FMild.1 mph89%29.65 "HgN/A
5:00 PM75 °FMild.1 mph82%29.65 "HgN/A
4:00 PM73 °FMild.1 mph92%29.67 "HgN/A
3:00 PM75 °FMild.10 mph83%29.68 "HgN/A
2:00 PM79 °FWarm.8 mph68%29.66 "HgN/A
1:00 PM80 °FWarm.12 mph63%29.67 "HgN/A
12:00 PM79 °FWarm.13 mph63%29.67 "HgN/A
11:00 AM80 °FWarm.14 mph62%29.69 "HgN/A
10:00 AM77 °FWarm.12 mph68%29.70 "HgN/A
9:00 AM73 °FMild.12 mph74%29.73 "HgN/A
6:00 AM66 °FMild.8 mph86%29.76 "HgN/A
5:00 AM67 °FMild.7 mph83%29.78 "HgN/A
4:00 AM68 °FMild.7 mph80%29.80 "HgN/A
2:00 AM71 °FMild.8 mph74%29.82 "HgN/A
1:00 AM71 °FMild.3 mph76%29.83 "HgN/A
12:00 AM71 °FMild.5 mph78%29.84 "HgN/A
11:00 PM
Jul 22
75 °FMild.7 mph68%29.86 "HgN/A
Weather by CustomWeather, © 2014

See weather overviewHow to use our weather pages